Location: Unspecified
(0.0000°N, 0.0000°E)
Time: 06:06:52
(UTC+00:00)

Hubble Space Telescope - Pass Details

Date: 12 October 2017
Orbit: 537 x 541 km, 28.5° (Epoch: 23 October)

Event Time Altitude Azimuth Distance (km) Brightness Sun altitude
Rises 19:16:07 0° 242° (WSW) 2,672 5.5 -22.2°
Reaches altitude 10° 19:18:23 10° 243° (WSW) 1,780 4.4 -22.8°
Enters shadow 19:22:17 75° 291° (WNW) 553 0.8 -23.7°
